Content
SEND FEEDBACK

Daily
Averages
Monthly
Summary
French Polynesia

PAPEETE, FRENCH POLYNESIA


Home > Oceania > French Polynesia
Elevation: 7 feet     Latitude: 17 33S     Longitude: 149 36W

WEATHER
 
SELECT A DAY
Number of Records: 213,109;   Date Range: 6/30/96 - 9/30/14
 
SHARE

PRINT THIS DATA

[ ← Previous Day ]
WEATHER ALMANAC - JANUARY 29, 2014
[ Next Day → ]
[ °C ]   °F
Weather ElementAverageHighLow
Temperature82.2 °F87.8 °F (12:00 pm)77 °F (2:30 am)
Dewpoint71 °F75.2 °F (10:30 am)68 °F (1:30 am)
Humidity68 %83 % (4:30 am)50 % (2:00 pm)
Barometer29.88 in29.92 in (9:00 am)29.83 in (2:00 am)
Wind Speed5.8 mph11.5 mph (9:00 am)
Weather ElementAverage
Visibility7.8 mi
Wind DirectionENE (58.2 °)

Weather ElementTotal
Precipitation---
Cooling Degree Days17.4 (Base 65)
Growing Degree Days32.4 (Base 50)
Averaged from 56 records on January 29, 2014
WEATHER CONDITIONS BREAKOUT
WIND DIRECTION BREAKOUT
WEATHER BY HOUR - JANUARY 29, 2014
[ °C ]   °F
Local TimeTemperatureDewpointHumidityBarometerVisibilityWind DirectionWind SpeedGust SpeedPrecipitationEventsConditions
12:30 AM78.8 °F69.8 °F74 %29.86 in6.2 miENE (60°)4.6 mphPartly Cloudy
1:00 AM78.8 °F69.8 °F74 %29.86 in6.2 miENE (60°)5.8 mphPartly Cloudy
1:30 AM78.8 °F68.0 °F69 %29.86 in6.2 miENE (60°)5.8 mphPartly Cloudy
2:00 AM78.0 °F69.0 °F68 %29.85 in12.0 miENE (60°)4.6 mphScattered Clouds
2:00 AM78.8 °F69.8 °F74 %29.83 in6.2 miENE (60°)4.6 mphPartly Cloudy
2:30 AM77.0 °F69.8 °F78 %29.83 in6.2 miENE (60°)3.5 mphPartly Cloudy
3:00 AM77.0 °F69.8 °F78 %29.83 in6.2 miNE (50°)3.5 mphPartly Cloudy
3:30 AM77.0 °F69.8 °F78 %29.83 in6.2 miENE (60°)4.6 mphPartly Cloudy
4:00 AM77.0 °F69.8 °F78 %29.83 in6.2 miENE (70°)6.9 mphScattered Clouds
4:30 AM77.0 °F71.6 °F83 %29.83 in6.2 miENE (60°)4.6 mphMostly Cloudy
5:00 AM77.0 °F69.0 °F71 %29.86 in34.0 miENE (60°)4.6 mphClear
5:00 AM77.0 °F69.8 °F78 %29.83 in6.2 miENE (60°)4.6 mphMostly Cloudy
5:30 AM77.0 °F69.8 °F78 %29.86 in6.2 miEast (80°)3.5 mphPartly Cloudy
6:00 AM77.0 °F69.8 °F78 %29.86 in6.2 miEast (80°)3.5 mphScattered Clouds
6:30 AM78.8 °F69.8 °F74 %29.89 in6.2 miCalmScattered Clouds
7:00 AM80.6 °F69.8 °F70 %29.89 in6.2 miCalmPartly Cloudy
7:30 AM82.4 °F69.8 °F66 %29.89 in6.2 miNE (50°)3.5 mphPartly Cloudy
8:00 AM83.0 °F70.0 °F57 %29.91 in19.0 miNE (40°)4.6 mphPartly Cloudy
8:00 AM84.2 °F69.8 °F62 %29.89 in6.2 miNE (40°)4.6 mphPartly Cloudy
8:30 AM84.2 °F71.6 °F66 %29.89 in6.2 miNE (50°)8.1 mphPartly Cloudy
9:00 AM86.0 °F71.6 °F62 %29.92 in6.2 miNE (40°)11.5 mphPartly Cloudy
9:35 AM86.0 °F71.6 °F62 %29.92 in6.2 miNE (40°)10.4 mphPartly Cloudy
10:00 AM86.0 °F73.4 °F66 %29.92 in6.2 miNE (40°)9.2 mphPartly Cloudy
10:30 AM86.0 °F75.2 °F70 %29.92 in6.2 miNNE (30°)9.2 mphPartly Cloudy
11:00 AM86.0 °F73.0 °F57 %29.92 in19.0 miNE (40°)8.1 mphPartly Cloudy
11:00 AM86.0 °F73.4 °F66 %29.92 in6.2 miNE (40°)8.1 mphScattered Clouds
11:30 AM86.0 °F73.4 °F66 %29.89 in6.2 miNNE (30°)8.1 mphPartly Cloudy
12:00 PM87.8 °F73.4 °F62 %29.89 in6.2 miNE (40°)6.9 mphScattered Clouds
12:30 PM86.0 °F73.4 °F66 %29.89 in6.2 miNE (40°)10.4 mphPartly Cloudy
1:00 PM86.0 °F71.6 °F62 %29.89 in6.2 miNE (50°)9.2 mphPartly Cloudy
1:30 PM87.8 °F71.6 °F58 %29.86 in6.2 miNNE (30°)11.5 mphPartly Cloudy
2:00 PM87.0 °F71.0 °F50 %29.88 in9.0 miNE (50°)9.2 mphPartly Cloudy
2:00 PM87.8 °F71.6 °F58 %29.86 in6.2 miNE (50°)9.2 mphPartly Cloudy
2:30 PM87.8 °F73.4 °F62 %29.86 in6.2 miNE (50°)8.1 mphScattered Clouds
3:00 PM86.0 °F71.6 °F62 %29.86 in6.2 miNE (40°)8.1 mphPartly Cloudy
3:30 PM86.0 °F71.6 °F62 %29.86 in6.2 miVariable3.5 mphPartly Cloudy
4:00 PM87.8 °F73.4 °F62 %29.86 in6.2 miNNE (30°)6.9 mphPartly Cloudy
4:04 PM87.8 °F71.6 °F58 %29.86 in6.2 miNE (40°)8.1 mphPartly Cloudy
4:30 PM86.0 °F71.6 °F62 %29.86 in6.2 miNE (40°)8.1 mphPartly Cloudy
5:00 PM84.0 °F72.0 °F60 %29.87 in16.0 miNE (40°)5.8 mphPartly Cloudy
5:00 PM84.2 °F71.6 °F66 %29.86 in6.2 miNE (40°)5.8 mphPartly Cloudy
5:30 PM84.2 °F73.4 °F70 %29.86 in6.2 miNE (50°)6.9 mphPartly Cloudy
6:00 PM84.2 °F71.6 °F66 %29.86 in6.2 miVariable4.6 mphPartly Cloudy
6:30 PM82.4 °F71.6 °F70 %29.89 in6.2 miSouth (190°)8.1 mphPartly Cloudy
7:00 PM82.4 °F71.6 °F70 %29.89 in6.2 miSouth (180°)6.9 mphPartly Cloudy
7:30 PM80.6 °F69.8 °F70 %29.89 in6.2 miSouth (170°)4.6 mphPartly Cloudy
8:00 PM81.0 °F70.0 °F62 %29.91 in16.0 miESE (120°)4.6 mphScattered Clouds
8:00 PM80.6 °F69.8 °F70 %29.89 in6.2 miESE (120°)4.6 mphPartly Cloudy
8:30 PM80.6 °F69.8 °F70 %29.92 in6.2 miVariable3.5 mphPartly Cloudy
9:00 PM80.6 °F69.8 °F70 %29.92 in6.2 miENE (70°)3.5 mphPartly Cloudy
9:30 PM78.8 °F69.8 °F74 %29.92 in6.2 miEast (90°)3.5 mphPartly Cloudy
10:00 PM78.8 °F69.8 °F74 %29.92 in6.2 miEast (90°)3.5 mphPartly Cloudy
10:30 PM78.8 °F69.8 °F74 %29.92 in6.2 miEast (100°)3.5 mphPartly Cloudy
11:00 PM78.0 °F70.0 °F69 %29.91 in16.0 miESE (110°)2.3 mphScattered Clouds
11:00 PM78.8 °F69.8 °F74 %29.89 in6.2 miESE (110°)2.3 mphPartly Cloudy
11:30 PM78.8 °F69.8 °F74 %29.89 in6.2 miVariable2.3 mphPartly Cloudy
Hourly data recorded from NTAA, located miles away from Papeete, French Polynesia







STORIES FROM OUR PARTNERS